Weather in Salzwedel

Germany     52°50′31″N   11°10′16″E
temp.,
°C
wind,
m/s
gust,
m/s
humid.,
%
clouds,
%
prec.,
mm/h
press.,
hPa
HPBL,
m
10 august, wed
wed1023:00+17nne35650 0.0 102880
02:00+15ene227153 0.0 102823
05:00+14e227565 0.0 102813
08:00+17ene3462100 0.0 1028198
11:00+23ene33416 0.0 1028990
14:00+27ne33315 0.0 10261966
17:00+28ne33295 0.0 10252178
20:00+25ne33345 0.0 102445
11 august, thu
thu1123:00+19ne22470 0.0 102516
02:00+16e35624 0.0 102574
05:00+15e22655 0.0 102415
08:00+19ne22495 0.0 1025168
11:00+26ne4431100 0.0 1024912
14:00+29ne342220 0.0 10231910
17:00+31ne34185 0.0 10212233
20:00+27nne352738 0.0 102078
12 august, fri
fri1223:00+20ne47395 0.0 102192
02:00+17ene36605 0.0 102289
05:00+15e336829 0.0 102141
08:00+20e33515 0.0 1022176
11:00+27e3427100 0.0 1021921
14:00+31ese451995 0.0 10192458
17:00+31ese56180 0.0 10182737
20:00+27se36280 0.0 101897
13 august, sat
sat1323:00+22e22380 0.0 101911
02:00+19se22480 0.0 101912
05:00+18ese22560 0.0 101911
08:00+22ese23500 0.0 1019193
11:00+28ese35380 0.0 10191677
14:00+29e3434100 0.0 10182150
17:00+29e333696 0.0 1017944
20:00+27nne22380 0.0 101620
14 august, sun
sun1423:00+22e225312 0.0 101716
02:00+20ese33675 0.0 101637
05:00+19ese22745 0.0 101624
08:00+22ese236918 0.7 1016153
11:00+28e45452 0.3 1015792
14:00+33se4329100 0.3 10133143
17:00+33ese332560 0.0 10113021
20:00+26ne2245100 0.2 101131